Time,TemperatureF,DewpointF,PressureIn,WindDirection,WindDirectionDegrees,WindSpeedMPH,WindSpeedGustMPH,Humidity,HourlyPrecipIn,Conditions,Clouds,dailyrainin,SoftwareType,DateUTC
2013-02-10 00:01:00,34.0,34.0,29.68,East,100,13.0,20.0,100,-99.99,,,-99.99,,2013-02-10 06:01:00,
2013-02-10 00:11:00,34.0,34.0,29.68,East,100,13.0,20.0,100,-99.99,,,-99.99,,2013-02-10 06:11:00,
2013-02-10 00:21:00,34.0,34.0,29.68,East,100,10.0,17.0,100,-99.99,,,-99.99,,2013-02-10 06:21:00,
2013-02-10 00:32:00,34.0,34.0,29.68,ESE,110,9.0,-999.0,100,-99.99,,,-99.99,,2013-02-10 06:32:00,
2013-02-10 00:42:00,34.0,34.0,29.68,ESE,110,9.0,-999.0,100,-99.99,,,-99.99,,2013-02-10 06:42:00,
2013-02-10 00:51:00,34.0,34.0,29.67,ESE,110,10.0,15.0,100,-99.99,,,-99.99,,2013-02-10 06:51:00,
2013-02-10 01:01:00,34.0,34.0,29.67,ESE,110,10.0,15.0,100,-99.99,,,-99.99,,2013-02-10 07:01:00,
2013-02-10 01:11:00,34.0,34.0,29.67,ESE,110,10.0,15.0,100,-99.99,,,-99.99,,2013-02-10 07:11:00,
2013-02-10 01:21:00,34.0,34.0,29.67,ESE,110,10.0,15.0,100,-99.99,,,-99.99,,2013-02-10 07:21:00,
2013-02-10 01:31:00,34.0,34.0,29.64,East,100,13.0,-999.0,100,-99.99,,,-99.99,,2013-02-10 07:31:00,
2013-02-10 01:42:00,34.0,34.0,29.64,East,100,13.0,-999.0,100,-99.99,,,-99.99,,2013-02-10 07:42:00,
2013-02-10 01:52:00,34.0,34.0,29.58,ENE,70,15.0,21.0,100,-99.99,,,-99.99,,2013-02-10 07:52:00,
2013-02-10 02:01:00,34.0,34.0,29.58,ENE,70,15.0,21.0,100,-99.99,,,-99.99,,2013-02-10 08:01:00,
2013-02-10 02:11:00,34.0,34.0,29.58,ENE,70,15.0,21.0,100,-99.99,,,-99.99,,2013-02-10 08:11:00,
2013-02-10 02:21:00,34.0,34.0,29.58,ENE,70,15.0,21.0,100,-99.99,,,-99.99,,2013-02-10 08:21:00,
2013-02-10 02:32:00,34.0,34.0,29.60,ESE,110,12.0,18.0,100,-99.99,,,-99.99,,2013-02-10 08:32:00,
2013-02-10 02:43:00,34.0,34.0,29.60,ESE,110,12.0,18.0,100,-99.99,,,-99.99,,2013-02-10 08:43:00,
2013-02-10 02:52:00,34.0,34.0,29.59,ESE,110,16.0,22.0,100,-99.99,,,-99.99,,2013-02-10 08:52:00,
2013-02-10 03:02:00,34.0,34.0,29.59,ESE,110,16.0,22.0,100,-99.99,,,-99.99,,2013-02-10 09:02:00,
2013-02-10 03:11:00,34.0,34.0,29.59,ESE,110,13.0,24.0,100,-99.99,,,-99.99,,2013-02-10 09:11:00,
2013-02-10 03:21:00,34.0,34.0,29.59,ESE,110,13.0,24.0,100,-99.99,,,-99.99,,2013-02-10 09:21:00,
2013-02-10 03:31:00,34.0,34.0,29.56,ESE,110,14.0,18.0,100,-99.99,,,-99.99,,2013-02-10 09:31:00,
2013-02-10 03:41:00,34.0,34.0,29.56,ESE,110,14.0,18.0,100,-99.99,,,-99.99,,2013-02-10 09:41:00,
2013-02-10 03:51:00,34.0,34.0,29.54,ESE,110,13.0,20.0,100,-99.99,,,-99.99,,2013-02-10 09:51:00,
2013-02-10 04:01:00,34.0,34.0,29.54,ESE,110,13.0,20.0,100,-99.99,,,-99.99,,2013-02-10 10:01:00,
2013-02-10 04:11:00,34.0,34.0,29.53,East,100,14.0,20.0,100,-99.99,,,-99.99,,2013-02-10 10:11:00,
2013-02-10 04:21:00,34.0,34.0,29.53,East,100,14.0,20.0,100,-99.99,,,-99.99,,2013-02-10 10:21:00,
2013-02-10 04:31:00,34.0,34.0,29.49,East,80,12.0,18.0,100,-99.99,,,-99.99,,2013-02-10 10:31:00,
2013-02-10 04:41:00,34.0,34.0,29.49,East,80,12.0,18.0,100,-99.99,,,-99.99,,2013-02-10 10:41:00,
2013-02-10 04:51:00,32.0,32.0,29.47,East,90,12.0,16.0,100,-99.99,,,-99.99,,2013-02-10 10:51:00,
2013-02-10 05:01:00,32.0,32.0,29.47,East,90,12.0,16.0,100,-99.99,,,-99.99,,2013-02-10 11:01:00,
2013-02-10 05:11:00,32.0,32.0,29.48,East,100,14.0,18.0,100,-99.99,,,-99.99,,2013-02-10 11:11:00,
2013-02-10 05:22:00,32.0,32.0,29.48,East,100,14.0,18.0,100,-99.99,,,-99.99,,2013-02-10 11:22:00,
2013-02-10 05:32:00,34.0,34.0,29.47,East,100,13.0,22.0,100,-99.99,,,-99.99,,2013-02-10 11:32:00,
2013-02-10 05:42:00,34.0,34.0,29.47,East,100,13.0,22.0,100,-99.99,,,-99.99,,2013-02-10 11:42:00,
2013-02-10 05:52:00,34.0,34.0,29.45,East,90,13.0,22.0,100,-99.99,,,-99.99,,2013-02-10 11:52:00,
2013-02-10 06:01:00,34.0,34.0,29.45,East,90,13.0,22.0,100,-99.99,,,-99.99,,2013-02-10 12:01:00,
2013-02-10 06:12:00,32.0,32.0,29.44,East,100,13.0,20.0,100,-99.99,,,-99.99,,2013-02-10 12:12:00,
2013-02-10 06:21:00,32.0,32.0,29.44,East,100,13.0,20.0,100,-99.99,,,-99.99,,2013-02-10 12:21:00,
2013-02-10 06:32:00,32.0,32.0,29.43,East,100,15.0,22.0,100,-99.99,,,-99.99,,2013-02-10 12:32:00,
2013-02-10 06:42:00,32.0,32.0,29.43,East,100,15.0,22.0,100,-99.99,,,-99.99,,2013-02-10 12:42:00,
2013-02-10 06:52:00,32.0,32.0,29.41,East,90,12.0,16.0,100,-99.99,,,-99.99,,2013-02-10 12:52:00,
2013-02-10 07:02:00,32.0,32.0,29.41,East,90,12.0,16.0,100,-99.99,,,-99.99,,2013-02-10 13:02:00,
2013-02-10 07:11:00,32.0,32.0,29.41,East,80,9.0,-999.0,100,-99.99,,,-99.99,,2013-02-10 13:11:00,
2013-02-10 07:21:00,32.0,32.0,29.41,East,80,9.0,-999.0,100,-99.99,,,-99.99,,2013-02-10 13:21:00,
2013-02-10 07:31:00,32.0,32.0,29.40,East,80,10.0,17.0,100,-99.99,,,-99.99,,2013-02-10 13:31:00,
2013-02-10 07:41:00,32.0,32.0,29.40,East,80,10.0,17.0,100,-99.99,,,-99.99,,2013-02-10 13:41:00,
2013-02-10 07:51:00,32.0,32.0,29.38,East,80,9.0,-999.0,100,-99.99,,,-99.99,,2013-02-10 13:51:00,
2013-02-10 08:02:00,32.0,32.0,29.38,East,80,9.0,-999.0,100,-99.99,,,-99.99,,2013-02-10 14:02:00,
2013-02-10 08:11:00,32.0,32.0,29.38,East,80,9.0,-999.0,100,-99.99,,,-99.99,,2013-02-10 14:11:00,
2013-02-10 08:21:00,32.0,32.0,29.38,East,80,9.0,-999.0,100,-99.99,,,-99.99,,2013-02-10 14:21:00,
2013-02-10 08:32:00,32.0,32.0,29.36,ENE,70,13.0,-999.0,100,-99.99,,,-99.99,,2013-02-10 14:32:00,
2013-02-10 08:42:00,32.0,32.0,29.36,ENE,70,13.0,-999.0,100,-99.99,,,-99.99,,2013-02-10 14:42:00,
2013-02-10 08:52:00,32.0,32.0,29.36,East,80,12.0,-999.0,100,-99.99,,,-99.99,,2013-02-10 14:52:00,
2013-02-10 09:01:00,32.0,32.0,29.36,East,80,12.0,-999.0,100,-99.99,,,-99.99,,2013-02-10 15:01:00,
2013-02-10 09:11:00,32.0,32.0,29.36,East,90,9.0,-999.0,100,-99.99,,,-99.99,,2013-02-10 15:11:00,
2013-02-10 09:22:00,32.0,32.0,29.36,East,90,9.0,-999.0,100,-99.99,,,-99.99,,2013-02-10 15:22:00,
2013-02-10 09:32:00,32.0,32.0,29.35,East,90,10.0,-999.0,100,-99.99,,,-99.99,,2013-02-10 15:32:00,
2013-02-10 09:42:00,32.0,32.0,29.35,East,90,10.0,-999.0,100,-99.99,,,-99.99,,2013-02-10 15:42:00,
2013-02-10 09:51:00,32.0,32.0,29.34,East,80,8.0,-999.0,100,-99.99,,,-99.99,,2013-02-10 15:51:00,
2013-02-10 10:02:00,32.0,32.0,29.34,East,80,8.0,-999.0,100,-99.99,,,-99.99,,2013-02-10 16:02:00,
2013-02-10 10:11:00,32.0,32.0,29.33,ENE,70,7.0,-999.0,100,-99.99,,,-99.99,,2013-02-10 16:11:00,
2013-02-10 10:22:00,32.0,32.0,29.33,ENE,70,7.0,-999.0,100,-99.99,,,-99.99,,2013-02-10 16:22:00,
2013-02-10 10:32:00,32.0,32.0,29.31,ENE,70,7.0,-999.0,100,-99.99,,,-99.99,,2013-02-10 16:32:00,
2013-02-10 10:42:00,32.0,32.0,29.31,ENE,70,7.0,-999.0,100,-99.99,,,-99.99,,2013-02-10 16:42:00,
2013-02-10 10:52:00,32.0,32.0,29.30,ENE,70,8.0,-999.0,100,-99.99,,,-99.99,,2013-02-10 16:52:00,
2013-02-10 11:01:00,32.0,32.0,29.30,ENE,70,8.0,-999.0,100,-99.99,,,-99.99,,2013-02-10 17:01:00,
2013-02-10 11:11:00,32.0,32.0,29.30,ENE,70,8.0,-999.0,100,-99.99,,,-99.99,,2013-02-10 17:11:00,
2013-02-10 11:22:00,32.0,32.0,29.30,ENE,70,8.0,-999.0,100,-99.99,,,-99.99,,2013-02-10 17:22:00,
2013-02-10 11:32:00,34.0,34.0,29.29,ENE,70,7.0,-999.0,100,-99.99,,,-99.99,,2013-02-10 17:32:00,
2013-02-10 11:42:00,34.0,34.0,29.29,ENE,70,7.0,-999.0,100,-99.99,,,-99.99,,2013-02-10 17:42:00,
2013-02-10 11:52:00,34.0,34.0,29.28,ENE,70,7.0,-999.0,100,-99.99,,,-99.99,,2013-02-10 17:52:00,
2013-02-10 12:02:00,34.0,34.0,29.28,ENE,70,7.0,-999.0,100,-99.99,,,-99.99,,2013-02-10 18:02:00,
2013-02-10 12:11:00,34.0,34.0,29.28,ENE,60,5.0,-999.0,100,-99.99,,,-99.99,,2013-02-10 18:11:00,
2013-02-10 12:22:00,34.0,34.0,29.28,ENE,60,5.0,-999.0,100,-99.99,,,-99.99,,2013-02-10 18:22:00,
2013-02-10 12:32:00,34.0,34.0,29.27,ENE,60,5.0,-999.0,100,-99.99,,,-99.99,,2013-02-10 18:32:00,
2013-02-10 12:42:00,34.0,34.0,29.27,ENE,60,5.0,-999.0,100,-99.99,,,-99.99,,2013-02-10 18:42:00,
2013-02-10 12:52:00,34.0,34.0,29.27,North,350,5.0,-999.0,100,-99.99,,,-99.99,,2013-02-10 18:52:00,
2013-02-10 13:02:00,34.0,34.0,29.27,North,350,5.0,-999.0,100,-99.99,,,-99.99,,2013-02-10 19:02:00,
2013-02-10 13:11:00,32.0,32.0,29.26,North,350,5.0,-999.0,100,-99.99,,,-99.99,,2013-02-10 19:11:00,
2013-02-10 13:22:00,32.0,32.0,29.26,North,350,5.0,-999.0,100,-99.99,,,-99.99,,2013-02-10 19:22:00,
2013-02-10 13:32:00,32.0,32.0,29.26,NNW,340,6.0,-999.0,100,-99.99,,,-99.99,,2013-02-10 19:32:00,
2013-02-10 13:42:00,32.0,32.0,29.26,NNW,340,6.0,-999.0,100,-99.99,,,-99.99,,2013-02-10 19:42:00,
2013-02-10 13:52:00,34.0,34.0,29.25,North,350,7.0,-999.0,100,-99.99,,,-99.99,,2013-02-10 19:52:00,
2013-02-10 14:02:00,34.0,34.0,29.25,North,350,7.0,-999.0,100,-99.99,,,-99.99,,2013-02-10 20:02:00,
2013-02-10 14:11:00,34.0,34.0,29.25,North,350,7.0,-999.0,100,-99.99,,,-99.99,,2013-02-10 20:11:00,
2013-02-10 14:22:00,34.0,34.0,29.25,North,350,7.0,-999.0,100,-99.99,,,-99.99,,2013-02-10 20:22:00,
2013-02-10 14:32:00,34.0,34.0,29.25,North,350,8.0,-999.0,100,-99.99,,,-99.99,,2013-02-10 20:32:00,
2013-02-10 14:42:00,34.0,34.0,29.25,North,350,8.0,-999.0,100,-99.99,,,-99.99,,2013-02-10 20:42:00,
2013-02-10 14:52:00,34.0,34.0,29.26,NNW,330,12.0,-999.0,100,-99.99,,,-99.99,,2013-02-10 20:52:00,
2013-02-10 15:02:00,34.0,34.0,29.26,NNW,330,12.0,-999.0,100,-99.99,,,-99.99,,2013-02-10 21:02:00,
2013-02-10 15:11:00,34.0,34.0,29.26,NNW,330,12.0,-999.0,100,-99.99,,,-99.99,,2013-02-10 21:11:00,
2013-02-10 15:22:00,34.0,34.0,29.26,NNW,330,12.0,-999.0,100,-99.99,,,-99.99,,2013-02-10 21:22:00,
2013-02-10 15:32:00,30.0,30.0,29.28,NNW,330,16.0,21.0,100,-99.99,,,-99.99,,2013-02-10 21:32:00,
2013-02-10 15:42:00,30.0,30.0,29.28,NNW,330,16.0,21.0,100,-99.99,,,-99.99,,2013-02-10 21:42:00,
2013-02-10 15:52:00,30.0,30.0,29.29,NNW,330,17.0,23.0,100,-99.99,,,-99.99,,2013-02-10 21:52:00,
2013-02-10 16:02:00,30.0,30.0,29.29,NNW,330,17.0,23.0,100,-99.99,,,-99.99,,2013-02-10 22:02:00,
2013-02-10 16:11:00,30.0,30.0,29.31,NW,320,17.0,23.0,100,-99.99,,,-99.99,,2013-02-10 22:11:00,
2013-02-10 16:22:00,30.0,30.0,29.31,NW,320,17.0,23.0,100,-99.99,,,-99.99,,2013-02-10 22:22:00,
2013-02-10 16:32:00,28.0,28.0,29.33,NW,320,17.0,30.0,100,-99.99,,,-99.99,,2013-02-10 22:32:00,
2013-02-10 16:42:00,28.0,28.0,29.33,NW,320,17.0,30.0,100,-99.99,,,-99.99,,2013-02-10 22:42:00,
2013-02-10 16:52:00,28.0,28.0,29.34,NW,320,25.0,31.0,100,-99.99,,,-99.99,,2013-02-10 22:52:00,
2013-02-10 17:02:00,28.0,28.0,29.34,NW,320,25.0,31.0,100,-99.99,,,-99.99,,2013-02-10 23:02:00,
2013-02-10 17:11:00,28.0,28.0,29.34,NW,320,25.0,31.0,100,-99.99,,,-99.99,,2013-02-10 23:11:00,
2013-02-10 17:22:00,28.0,28.0,29.34,NW,320,25.0,31.0,100,-99.99,,,-99.99,,2013-02-10 23:22:00,
2013-02-10 17:32:00,28.0,28.0,29.38,NW,320,18.0,27.0,100,-99.99,,,-99.99,,2013-02-10 23:32:00,
2013-02-10 17:42:00,28.0,28.0,29.38,NW,320,18.0,27.0,100,-99.99,,,-99.99,,2013-02-10 23:42:00,
2013-02-10 17:52:00,27.0,27.0,29.39,NW,320,17.0,29.0,100,-99.99,,,-99.99,,2013-02-10 23:52:00,
2013-02-10 18:02:00,27.0,27.0,29.39,NW,320,17.0,29.0,100,-99.99,,,-99.99,,2013-02-11 00:02:00,
2013-02-10 18:11:00,27.0,27.0,29.40,WNW,300,17.0,31.0,100,-99.99,,,-99.99,,2013-02-11 00:11:00,
2013-02-10 18:22:00,27.0,27.0,29.40,WNW,300,17.0,31.0,100,-99.99,,,-99.99,,2013-02-11 00:22:00,
2013-02-10 18:32:00,27.0,27.0,29.42,NW,310,22.0,29.0,100,-99.99,,,-99.99,,2013-02-11 00:32:00,
2013-02-10 18:42:00,27.0,27.0,29.42,NW,310,22.0,29.0,100,-99.99,,,-99.99,,2013-02-11 00:42:00,
2013-02-10 18:51:00,27.0,27.0,29.43,NW,310,20.0,36.0,100,-99.99,,,-99.99,,2013-02-11 00:51:00,
2013-02-10 19:01:00,27.0,27.0,29.43,NW,310,20.0,36.0,100,-99.99,,,-99.99,,2013-02-11 01:01:00,
2013-02-10 19:11:00,27.0,27.0,29.43,NW,310,20.0,36.0,100,-99.99,,,-99.99,,2013-02-11 01:11:00,
2013-02-10 19:21:00,27.0,27.0,29.43,NW,310,20.0,36.0,100,-99.99,,,-99.99,,2013-02-11 01:21:00,
2013-02-10 19:32:00,27.0,27.0,29.46,WNW,300,20.0,28.0,100,-99.99,,,-99.99,,2013-02-11 01:32:00,
2013-02-10 19:42:00,27.0,27.0,29.46,WNW,300,20.0,28.0,100,-99.99,,,-99.99,,2013-02-11 01:42:00,
2013-02-10 19:52:00,27.0,27.0,29.47,WNW,300,21.0,29.0,100,-99.99,,,-99.99,,2013-02-11 01:52:00,
2013-02-10 20:01:00,27.0,27.0,29.47,WNW,300,21.0,29.0,100,-99.99,,,-99.99,,2013-02-11 02:01:00,
2013-02-10 20:11:00,27.0,27.0,29.48,NW,310,21.0,28.0,100,-99.99,,,-99.99,,2013-02-11 02:11:00,
2013-02-10 20:21:00,27.0,27.0,29.48,NW,310,21.0,28.0,100,-99.99,,,-99.99,,2013-02-11 02:21:00,
2013-02-10 20:31:00,27.0,27.0,29.49,WNW,300,21.0,30.0,100,-99.99,,,-99.99,,2013-02-11 02:31:00,
2013-02-10 20:42:00,27.0,27.0,29.49,WNW,300,21.0,30.0,100,-99.99,,,-99.99,,2013-02-11 02:42:00,
2013-02-10 20:52:00,27.0,27.0,29.50,NW,310,22.0,29.0,100,-99.99,,,-99.99,,2013-02-11 02:52:00,
2013-02-10 21:02:00,27.0,27.0,29.50,NW,310,22.0,29.0,100,-99.99,,,-99.99,,2013-02-11 03:02:00,
2013-02-10 21:11:00,27.0,27.0,29.50,NW,310,22.0,29.0,100,-99.99,,,-99.99,,2013-02-11 03:11:00,
2013-02-10 21:21:00,27.0,27.0,29.50,NW,310,22.0,29.0,100,-99.99,,,-99.99,,2013-02-11 03:21:00,
2013-02-10 21:31:00,27.0,27.0,29.53,WNW,300,24.0,32.0,100,-99.99,,,-99.99,,2013-02-11 03:31:00,
2013-02-10 21:42:00,27.0,27.0,29.53,WNW,300,24.0,32.0,100,-99.99,,,-99.99,,2013-02-11 03:42:00,
2013-02-10 21:52:00,27.0,27.0,29.55,NW,310,20.0,35.0,100,-99.99,,,-99.99,,2013-02-11 03:52:00,
2013-02-10 22:01:00,27.0,27.0,29.55,NW,310,20.0,35.0,100,-99.99,,,-99.99,,2013-02-11 04:01:00,
2013-02-10 22:11:00,27.0,27.0,29.56,WNW,300,17.0,32.0,100,-99.99,,,-99.99,,2013-02-11 04:11:00,
2013-02-10 22:21:00,27.0,27.0,29.56,WNW,300,17.0,32.0,100,-99.99,,,-99.99,,2013-02-11 04:21:00,
2013-02-10 22:31:00,27.0,27.0,29.58,WNW,300,22.0,36.0,100,-99.99,,,-99.99,,2013-02-11 04:31:00,
2013-02-10 22:42:00,27.0,27.0,29.58,WNW,300,22.0,36.0,100,-99.99,,,-99.99,,2013-02-11 04:42:00,
2013-02-10 22:51:00,27.0,25.0,29.59,WNW,300,21.0,32.0,92,-99.99,,,-99.99,,2013-02-11 04:51:00,
2013-02-10 23:01:00,27.0,25.0,29.59,WNW,300,21.0,32.0,92,-99.99,,,-99.99,,2013-02-11 05:01:00,
2013-02-10 23:11:00,27.0,25.0,29.59,WNW,300,21.0,32.0,92,-99.99,,,-99.99,,2013-02-11 05:11:00,
2013-02-10 23:22:00,27.0,25.0,29.59,WNW,300,21.0,32.0,92,-99.99,,,-99.99,,2013-02-11 05:22:00,
2013-02-10 23:31:00,25.0,25.0,29.62,WNW,300,23.0,32.0,100,-99.99,,,-99.99,,2013-02-11 05:31:00,
2013-02-10 23:42:00,25.0,25.0,29.62,WNW,300,23.0,32.0,100,-99.99,,,-99.99,,2013-02-11 05:42:00,
2013-02-10 23:53:00,25.0,25.0,29.64,WNW,300,24.0,38.0,100,-99.99,,,-99.99,,2013-02-11 05:53:00,